Temperature
13 13 13 13 13 13 13 13 13 13 13 13 13 13 13 13 13 13 13 13 13 12 12 12 12 12 11 11 11 11 11 11 10 10 10 10 10 10 10 9 9 9 9
12 12 13 13 13 13 13 12 12 12 12 12 13 12 12 12 12 12 12 12 12 12 12 12 12 11 11 11 11 11 10 10 10 10 10 9 9 9 9 9 9 9 9
12 12 12 12 12 12 12 12 12 12 12 12 12 12 12 11 11 11 12 12 12 12 11 11 11 11 11 11 10 10 10 10 9 9 9 8 8 8 8 8 8 8 8
11 11 12 12 12 12 12 12 12 12 12 11 12 12 11 11 11 11 11 11 11 11 11 11 11 10 10 10 10 10 10 9 9 9 8 8 8 7 7 8 8 8 8
11 11 11 11 11 11 11 11 11 11 11 11 11 11 11 11 11 11 11 11 11 10 10 10 10 10 10 10 10 9 9 9 8 8 8 8 7 7 7 7 7 7 7
10 10 10 10 11 11 11 11 10 11 11 11 11 10 11 11 10 10 10 10 10 10 10 10 10 10 9 9 9 9 9 8 8 8 7 7 7 7 6 6 6 6 6
9 9 10 10 10 10 10 10 10 10 10 10 10 10 10 10 10 10 10 10 10 10 10 9 9 9 9 9 9 8 8 8 8 7 7 7 6 6 6 6 5 5 6
8 9 9 9 9 9 9 9 9 9 9 9 9 9 9 9 9 9 9 9 9 9 9 9 9 9 8 8 8 8 8 8 7 7 7 6 6 6 6 5 5 4 4
8 8 8 9 9 9 9 9 9 9 8 9 9 8 8 8 8 9 8 8 8 8 8 8 8 8 8 8 8 8 7 7 7 7 6 6 6 6 5 5 4 4 3
7 7 7 8 8 8 8 8 8 8 8 8 8 8 8 8 8 8 8 8 8 8 8 8 8 7 7 7 7 7 7 7 6 6 6 6 6 5 5 5 4 4 3
6 6 7 7 7 7 8 8 8 8 7 7 7 7 7 7 7 7 7 7 7 7 7 7 7 7 7 7 7 7 6 6 6 6 5 5 5 5 5 4 4 3 3
5 6 6 6 7 7 7 7 7 7 7 7 7 7 7 7 7 7 7 7 7 6 6 6 6 6 6 6 6 6 6 6 5 5 5 5 4 4 4 4 3 3 2
4 5 5 5 6 6 6 6 6 6 6 6 6 6 6 6 6 6 6 6 6 6 6 6 6 6 6 6 6 6 5 5 5 4 4 4 4 4 3 3 2 2 2
4 4 4 5 5 5 5 5 5 6 5 5 5 6 6 6 6 6 6 6 6 5 5 5 5 5 5 5 5 5 5 5 4 4 4 3 3 3 3 2 2 2 2
3 3 3 4 4 4 5 5 5 5 5 5 5 5 5 5 5 5 5 5 5 5 5 5 5 5 5 5 4 4 4 4 4 4 3 3 3 2 2 2 2 2 2
2 2 3 3 3 4 4 4 4 4 4 4 4 4 4 4 4 4 4 4 4 4 4 4 4 4 4 4 4 4 3 3 3 3 3 3 2 2 2 2 2 1 1
2 2 2 2 3 3 3 3 3 3 3 3 3 3 4 4 4 4 4 4 4 4 4 4 4 4 4 3 3 3 3 3 3 2 2 2 2 2 2 2 1 1 1
1 1 1 2 2 2 2 2 2 2 2 2 3 3 3 3 3 3 3 3 3 3 3 3 3 3 3 2 2 2 2 2 2 2 2 1 1 1 1 1 1 1 1
0 1 1 1 1 1 2 2 2 2 2 2 2 2 2 2 2 2 2 2 2 2 2 2 2 2 2 2 2 1 1 1 1 1 1 1 1 1 1 0 0 0 0
-0 0 0 1 1 1 1 1 1 1 1 1 1 1 1 2 2 2 2 1 2 1 1 1 1 1 1 1 1 1 1 1 1 1 1 0 0 0 -0 -0 -0 -0 -0
-1 -0 0 0 0 0 0 0 0 0 0 0 0 1 1 1 1 1 1 1 1 1 1 1 1 1 0 0 0 0 0 0 0 0 0 -0 -0 -0 -0 -1 -1 -1 -1
-1 -1 -0 -0 -0 -0 -0 -0 -1 -0 -1 -0 -0 -0 0 0 0 -0 -0 -0 -0 -0 -0 -0 -0 -0 -0 -0 -0 -0 -0 -0 -0 -0 -1 -1 -1 -1 -1 -1 -1 -1 -2
-1 -1 -1 -1 -1 -1 -1 -1 -1 -1 -1 -1 -1 -1 -1 -1 -1 -1 -1 -1 -1 -1 -1 -1 -1 -1 -1 -1 -1 -1 -1 -1 -1 -1 -1 -1 -1 -1 -1 -1 -1 -2 -2
-2 -2 -2 -2 -2 -2 -2 -2 -2 -2 -2 -1 -1 -1 -1 -1 -1 -1 -1 -1 -1 -1 -1 -2 -1 -1 -1 -1 -1 -1 -1 -1 -1 -2 -2 -2 -2 -2 -2 -2 -2 -2 -2
-3 -2 -2 -2 -2 -2 -2 -2 -2 -2 -2 -2 -2 -2 -2 -2 -2 -2 -2 -2 -2 -2 -2 -2 -2 -2 -2 -2 -2 -2 -2 -2 -2 -2 -2 -2 -2 -2 -2 -2 -2 -2 -3
-3 -3 -3 -3 -3 -3 -3 -3 -3 -3 -3 -3 -3 -3 -3 -3 -3 -3 -3 -3 -3 -3 -3 -3 -3 -3 -3 -3 -3 -3 -3 -3 -3 -3 -3 -3 -3 -3 -3 -3 -3 -3 -3
Wind_Speed
5 5 6 7 7 7 7 8 8 7 7 6 5 5 4 3 3 5 7 8 8 8 7 4 4 4 2 2 2 2 2 2 1 2 3 3 3 2 2 2 2 3 4
5 5 5 6 7 7 7 8 8 8 7 6 4 3 4 3 3 4 5 7 8 7 6 5 3 3 2 2 2 2 2 1 2 2 1 2 4 3 3 2 2 2 4
8 6 6 6 6 7 7 7 7 7 7 6 5 5 4 3 2 2 2 3 6 7 6 6 4 3 3 2 2 2 3 1 1 1 2 2 2 3 3 3 2 3 2
6 6 6 6 6 6 6 6 6 6 6 7 7 8 5 4 3 3 3 3 5 5 6 5 5 4 3 3 2 2 2 3 1 1 1 1 2 1 2 3 2 3 3
7 6 6 6 5 4 5 5 6 6 6 6 8 7 5 3 3 3 4 3 2 4 5 5 4 3 3 2 2 2 2 2 2 1 0 0 0 1 2 3 4 4 3
5 4 4 5 4 4 4 5 6 5 6 6 6 7 7 6 6 5 4 3 2 2 3 4 4 3 3 3 2 2 2 2 2 1 1 1 1 1 2 3 4 5 5
5 5 5 5 5 5 5 5 6 5 5 6 6 5 6 7 7 6 5 4 2 2 2 3 3 3 3 3 3 2 2 2 2 2 1 1 2 1 1 2 3 4 4
4 5 5 5 5 5 5 5 6 5 5 5 5 5 5 4 4 4 4 4 3 3 3 3 3 3 3 3 3 2 1 1 1 1 1 1 1 1 1 2 2 4 3
4 4 4 4 4 5 5 6 6 5 5 5 5 4 4 4 4 4 4 3 2 2 3 3 3 3 2 2 2 1 1 1 1 1 1 1 1 1 1 1 2 2 4
3 3 3 4 4 4 4 4 5 5 4 4 5 4 4 4 4 4 4 4 3 3 3 2 3 3 2 2 2 1 1 1 0 0 0 1 1 1 1 1 2 2 3
3 3 2 3 4 4 4 4 4 4 4 4 4 4 4 4 4 4 4 3 3 3 3 2 2 3 2 2 2 1 1 1 0 0 1 2 2 1 2 2 2 2 2
3 3 3 4 4 4 4 3 3 3 3 4 4 4 4 4 4 4 3 3 3 3 3 2 2 2 2 2 3 2 1 1 1 1 1 2 2 2 2 2 2 3 3
3 3 3 4 4 4 3 3 3 3 3 4 4 4 3 3 3 3 3 3 3 2 2 2 2 2 2 2 3 2 2 2 2 2 2 2 2 2 2 2 3 3 3
3 3 3 3 3 3 3 3 3 3 3 4 4 4 3 3 2 3 3 3 3 3 2 2 2 2 2 2 2 2 2 2 2 2 2 3 2 3 3 3 3 3 3
3 3 2 2 3 3 3 3 3 3 3 4 4 3 2 3 3 2 2 2 2 2 2 2 1 1 1 2 2 2 2 2 2 2 2 2 3 3 3 3 3 3 3
2 2 2 3 3 3 2 3 3 2 3 4 3 3 3 3 3 2 2 2 2 1 1 1 1 1 2 2 3 2 2 1 2 3 3 3 3 3 4 5 5 5 4
2 2 2 2 2 2 2 3 2 3 3 3 3 2 3 3 2 2 2 2 1 1 1 0 0 1 2 3 2 2 1 2 3 3 3 3 3 4 3 4 5 5 6
1 1 2 2 2 2 2 2 3 3 3 3 2 2 2 2 2 2 2 1 1 1 1 1 1 1 2 3 3 2 1 2 3 3 3 4 4 3 3 3 3 4 5
1 1 1 2 2 2 2 3 3 3 3 2 2 2 2 2 2 1 1 1 1 1 1 1 1 2 3 4 3 2 1 2 3 3 3 3 3 5 5 3 4 5 5
1 1 2 3 3 2 3 4 3 3 2 1 1 2 2 2 2 1 1 1 1 1 1 2 2 2 3 4 4 3 2 2 2 2 2 3 4 5 4 3 3 5 5
1 2 3 3 2 2 4 4 3 1 0 1 2 2 2 2 1 1 1 0 1 1 1 2 2 3 3 4 5 4 2 2 3 3 2 3 5 5 5 4 3 5 5
2 3 3 2 2 2 4 3 1 0 1 2 2 2 2 2 1 1 1 1 1 1 1 2 3 3 3 3 4 5 5 4 3 3 3 3 5 6 6 5 5 6 4
2 2 3 3 2 2 3 3 1 1 2 2 2 2 2 2 1 1 1 0 0 0 1 2 2 3 2 3 4 5 5 5 3 3 4 5 5 5 4 5 6 4 2
1 2 3 3 2 2 2 1 1 2 2 2 1 1 1 1 1 1 0 0 1 1 1 2 2 3 3 3 2 2 2 3 3 2 3 4 4 3 3 4 4 2 2
1 2 2 2 1 1 2 1 1 2 2 2 1 1 1 1 1 1 1 1 2 2 2 2 2 3 4 4 5 4 2 2 2 2 1 1 2 2 2 2 3 2 3
1 2 2 2 1 1 1 1 1 2 3 2 1 0 0 0 0 1 2 3 2 4 4 4 4 4 5 6 7 6 5 4 3 2 1 2 2 3 3 3 3 3 3
Wind_Direction
182 159 152 145 139 142 145 149 150 149 143 142 144 143 150 150 138 136 140 140 139 138 131 127 123 122 129 136 118 99 73 34 30 45 3 348 348 355 351 356 8 11 5
162 155 149 146 149 153 157 157 159 157 157 159 155 146 139 137 133 133 135 143 142 142 140 133 131 125 124 117 112 107 91 33 40 93 69 355 343 342 340 347 359 355 355
168 165 157 156 153 159 165 166 165 162 159 147 128 113 92 86 99 131 147 145 147 146 144 142 136 129 132 148 149 141 133 133 13 62 129 138 246 299 322 338 343 341 344
169 164 160 159 164 170 167 164 160 159 156 148 148 150 154 161 180 171 159 139 144 145 147 144 140 139 135 147 160 134 138 138 143 354 32 174 179 203 304 317 324 328 321
170 167 165 166 164 161 161 161 154 153 153 153 156 156 153 149 139 138 140 145 136 142 145 145 140 136 132 145 144 133 129 144 161 182 203 46 10 190 208 284 313 322 304
164 160 152 138 128 125 136 148 152 152 154 155 157 160 156 149 147 153 158 160 155 135 138 141 136 136 133 145 147 140 139 146 156 176 180 181 195 215 211 248 292 301 301
158 150 143 141 139 137 140 146 153 152 152 152 156 162 161 160 165 167 168 162 161 168 182 141 134 131 137 139 130 130 147 159 165 190 210 208 222 209 210 247 283 291 297
160 155 157 153 153 150 149 151 154 155 156 154 157 153 155 159 165 168 166 170 177 179 167 146 135 134 135 130 115 119 153 140 169 199 211 230 249 225 222 219 263 301 296
160 156 150 150 151 155 159 158 154 151 160 161 151 149 156 157 157 159 157 161 164 156 145 143 141 136 129 119 114 134 154 146 181 212 227 245 261 253 245 238 229 238 288
133 144 150 151 146 150 147 142 142 150 154 155 157 156 161 162 155 153 162 161 159 145 142 137 150 148 137 120 120 135 126 130 223 209 232 273 277 278 275 263 262 247 260
144 152 148 137 126 117 123 127 131 127 131 141 144 143 153 156 152 156 163 160 153 151 158 158 159 164 158 142 139 159 161 164 292 311 250 270 278 278 287 288 286 279 269
132 130 127 117 109 113 121 128 127 130 141 140 132 135 142 148 150 151 152 146 150 152 155 149 158 175 173 163 166 186 195 198 230 254 260 277 293 292 293 294 290 283 276
103 103 107 117 121 122 122 123 124 124 124 123 120 120 126 140 149 154 147 144 146 145 143 147 170 193 199 191 189 190 205 213 227 237 245 263 267 282 289 288 287 287 296
119 118 120 122 121 118 116 113 105 108 114 119 119 119 125 133 142 143 145 147 151 159 166 172 184 200 209 202 197 195 207 218 240 247 249 256 248 257 275 283 281 287 302
124 128 132 126 114 107 103 103 102 102 110 114 115 117 107 99 99 107 119 123 132 160 169 164 174 194 214 210 197 202 210 226 257 276 270 269 270 272 275 283 279 279 289
166 150 136 131 125 125 119 107 104 105 110 115 117 116 109 101 96 100 103 99 94 96 115 158 195 242 266 250 225 218 221 240 251 265 277 284 282 282 290 295 289 285 285
163 156 154 153 152 149 132 126 126 109 105 110 111 116 115 110 105 101 89 79 65 61 37 2 285 276 275 274 254 244 228 242 251 254 265 283 290 292 283 295 307 311 307
171 161 153 138 125 114 108 107 105 107 108 108 106 103 109 112 106 101 93 68 47 30 337 328 320 292 287 286 280 270 244 255 259 257 257 264 276 279 281 289 300 300 302
203 177 154 135 113 113 123 118 110 107 107 110 117 117 116 110 103 95 72 45 41 8 334 314 322 309 294 288 290 301 262 262 265 263 266 267 265 282 292 299 300 306 308
85 112 100 98 98 103 119 114 112 105 106 116 118 111 114 114 106 91 34 13 25 339 326 318 313 298 286 287 280 282 256 260 270 275 279 280 280 288 296 290 290 298 302
79 105 103 101 110 115 116 114 107 110 118 108 104 88 86 97 104 86 43 38 26 8 335 325 321 310 292 287 282 273 255 250 265 272 279 283 292 294 300 303 284 288 301
93 112 111 97 88 109 118 116 113 87 81 96 98 82 73 71 65 82 56 48 42 356 326 320 316 308 297 292 289 285 279 277 263 270 276 285 297 302 307 311 309 312 324
112 121 121 102 72 84 119 130 128 90 91 89 88 81 70 60 60 86 96 72 55 283 294 295 299 305 305 300 297 291 292 287 285 275 281 291 302 312 315 316 318 328 327
95 111 110 102 74 61 79 111 108 103 105 100 96 96 84 52 29 9 339 281 271 280 296 309 308 307 305 298 296 297 307 309 309 310 302 306 313 327 322 323 329 330 307
75 105 118 114 98 82 75 58 101 120 120 121 122 109 84 77 19 354 325 303 276 265 281 281 279 291 296 299 307 306 293 291 278 298 303 323 321 323 323 324 322 321 324
94 99 107 113 110 97 77 32 106 138 139 137 143 177 196 249 339 353 346 348 327 327 317 307 304 301 306 312 313 304 297 298 293 293 285 291 292 294 300 306 310 309 311
Height
1503 1506 1509 1511 1514 1516 1519 1521 1523 1526 1528 1530 1532 1534 1536 1539 1541 1542 1544 1546 1547 1548 1548 1549 1549 1550 1550 1550 1551 1550 1550 1550 1550 1550 1549 1548 1548 1547 1547 1546 1545 1544 1542
1501 1504 1506 1509 1511 1514 1516 1519 1521 1523 1526 1528 1531 1533 1534 1536 1538 1540 1542 1543 1544 1546 1546 1547 1547 1548 1548 1548 1548 1548 1548 1548 1548 1548 1546 1546 1546 1545 1545 1544 1543 1541 1540
1498 1500 1503 1506 1509 1511 1514 1516 1518 1521 1523 1526 1528 1530 1532 1534 1536 1537 1539 1541 1542 1543 1544 1545 1545 1545 1546 1546 1546 1546 1546 1546 1546 1546 1546 1544 1543 1542 1542 1541 1540 1539 1537
1496 1498 1501 1503 1506 1509 1511 1514 1516 1519 1521 1523 1525 1527 1529 1530 1532 1535 1537 1539 1540 1541 1542 1543 1543 1543 1544 1544 1543 1543 1543 1544 1543 1544 1543 1543 1542 1541 1538 1538 1537 1536 1534
1493 1495 1498 1501 1504 1506 1509 1512 1514 1516 1519 1521 1523 1525 1527 1529 1531 1533 1534 1536 1537 1539 1540 1540 1541 1541 1541 1541 1541 1541 1541 1541 1541 1541 1541 1540 1540 1539 1537 1534 1533 1532 1531
1491 1494 1496 1499 1501 1504 1507 1509 1511 1514 1516 1518 1521 1523 1525 1527 1528 1530 1531 1533 1534 1536 1537 1538 1538 1539 1539 1539 1539 1539 1539 1539 1539 1538 1538 1538 1537 1536 1535 1532 1530 1528 1527
1489 1491 1493 1496 1499 1501 1504 1506 1508 1511 1513 1516 1518 1520 1522 1524 1526 1527 1529 1530 1531 1533 1534 1535 1535 1536 1536 1537 1537 1537 1536 1536 1536 1536 1535 1535 1534 1534 1532 1531 1528 1525 1523
1487 1489 1491 1494 1496 1499 1501 1504 1506 1508 1511 1513 1515 1517 1519 1521 1523 1525 1526 1527 1529 1530 1531 1532 1533 1533 1534 1534 1534 1534 1534 1534 1534 1533 1533 1532 1531 1530 1529 1528 1526 1522 1519
1485 1487 1490 1492 1494 1497 1499 1501 1503 1506 1508 1510 1512 1514 1516 1519 1520 1522 1524 1525 1526 1527 1528 1529 1530 1530 1531 1531 1531 1531 1531 1531 1531 1530 1530 1529 1528 1527 1526 1525 1524 1522 1517
1484 1486 1488 1490 1492 1495 1497 1499 1502 1504 1506 1508 1510 1512 1514 1516 1518 1519 1520 1522 1523 1524 1525 1526 1527 1527 1528 1528 1528 1528 1528 1528 1527 1527 1526 1525 1525 1524 1523 1522 1520 1519 1517
1483 1484 1486 1489 1491 1493 1495 1498 1500 1502 1504 1506 1507 1509 1512 1513 1515 1516 1518 1519 1520 1521 1522 1523 1524 1524 1525 1525 1525 1525 1525 1524 1524 1523 1523 1522 1521 1520 1519 1518 1516 1515 1513
1483 1484 1486 1488 1490 1492 1494 1496 1498 1500 1502 1504 1505 1507 1509 1511 1512 1514 1515 1516 1517 1518 1519 1520 1520 1521 1522 1522 1522 1522 1521 1521 1520 1520 1519 1518 1517 1516 1515 1513 1512 1510 1509
1483 1484 1485 1487 1489 1491 1493 1495 1496 1498 1500 1502 1503 1505 1507 1508 1510 1511 1512 1513 1514 1515 1516 1517 1517 1518 1518 1518 1518 1518 1518 1517 1516 1516 1515 1514 1513 1512 1511 1509 1508 1507 1505
1482 1483 1484 1486 1488 1490 1491 1493 1494 1496 1498 1500 1501 1503 1505 1506 1507 1509 1510 1511 1511 1512 1513 1513 1514 1515 1515 1515 1514 1514 1514 1513 1513 1512 1511 1511 1510 1508 1507 1506 1504 1503 1501
1482 1483 1484 1485 1486 1488 1490 1491 1493 1494 1496 1498 1499 1501 1502 1504 1505 1506 1507 1508 1509 1509 1510 1510 1511 1511 1511 1511 1511 1510 1510 1509 1509 1508 1508 1507 1506 1505 1504 1502 1501 1499 1498
1482 1482 1483 1484 1485 1486 1488 1489 1491 1492 1494 1495 1497 1499 1500 1501 1502 1503 1504 1505 1506 1506 1507 1507 1507 1507 1507 1507 1507 1507 1506 1505 1505 1504 1504 1503 1502 1501 1500 1499 1498 1496 1495
1481 1481 1482 1483 1484 1485 1487 1488 1489 1491 1492 1494 1495 1496 1498 1499 1500 1501 1501 1502 1502 1502 1503 1503 1503 1503 1503 1503 1503 1503 1502 1502 1501 1500 1500 1499 1498 1497 1496 1495 1493 1492 1491
1480 1480 1481 1482 1483 1484 1486 1487 1488 1489 1490 1491 1493 1494 1495 1496 1497 1498 1498 1499 1499 1499 1499 1499 1499 1499 1499 1499 1499 1498 1498 1498 1497 1496 1496 1495 1494 1493 1492 1491 1489 1488 1486
1480 1480 1480 1481 1482 1483 1484 1485 1486 1487 1488 1489 1490 1491 1492 1493 1494 1495 1495 1496 1496 1496 1496 1496 1495 1495 1495 1495 1495 1495 1494 1493 1493 1492 1492 1491 1490 1489 1488 1487 1485 1483 1482
1478 1479 1479 1480 1480 1482 1483 1484 1484 1485 1486 1487 1489 1489 1490 1491 1492 1492 1493 1493 1493 1493 1493 1492 1492 1492 1492 1492 1492 1491 1490 1490 1489 1488 1488 1487 1486 1486 1485 1483 1481 1479 1477
1477 1477 1478 1478 1479 1480 1481 1482 1483 1484 1485 1486 1486 1487 1488 1489 1489 1490 1490 1490 1490 1490 1490 1489 1489 1489 1488 1488 1488 1488 1487 1486 1485 1484 1483 1483 1483 1482 1481 1479 1478 1476 1474
1476 1476 1477 1477 1478 1479 1480 1480 1481 1482 1483 1484 1484 1485 1486 1487 1487 1487 1487 1487 1487 1487 1487 1486 1486 1485 1485 1485 1484 1484 1483 1482 1481 1480 1480 1479 1479 1478 1477 1475 1474 1472 1471
1475 1475 1476 1476 1477 1478 1478 1478 1479 1480 1481 1482 1482 1483 1484 1484 1485 1485 1485 1485 1485 1484 1484 1483 1482 1482 1482 1481 1481 1480 1479 1479 1478 1477 1476 1476 1475 1474 1473 1471 1470 1469 1467
1474 1474 1474 1475 1475 1476 1477 1477 1478 1479 1479 1480 1480 1481 1482 1482 1482 1483 1483 1482 1482 1482 1481 1480 1479 1479 1478 1477 1477 1476 1476 1475 1474 1473 1473 1472 1471 1470 1469 1468 1466 1465 1463
1472 1473 1473 1473 1474 1475 1475 1476 1476 1477 1477 1478 1478 1479 1479 1480 1480 1480 1480 1480 1480 1479 1479 1478 1477 1475 1474 1474 1473 1473 1472 1471 1471 1470 1469 1468 1467 1466 1465 1464 1463 1461 1460
1471 1472 1472 1472 1473 1473 1474 1474 1475 1475 1475 1476 1476 1477 1477 1477 1477 1477 1478 1477 1477 1477 1476 1475 1474 1472 1472 1470 1470 1469 1469 1468 1467 1467 1465 1464 1463 1462 1461 1460 1459 1458 1456